When you browse on this site, cookies collect data to enhance your experience and personalize the content and advertising you see.
Visit our Privacy Policy to learn more. By continuing to use the site, you agree to this use of cookies and data.
  • In United Kingdom
  • List of Countries
  • For 7 days
  • Water Temperature
  • Weather Map
  • Weather Widgets
  • user-avatar
    Login

    Hourly Weather Klagenfurt

    Today, 26 January, Sunday

    Time Temperature Precipitation Wind Pressure Humidity
    00:00 +1°C° 0 mm 0 mps 691 mmHg 93%
    01:00 +1°C° 0 mm 0 mps 691 mmHg 93%
    02:00 +1°C° 0 mm 0 mps 691 mmHg 94%
    03:00 +1°C° 0 mm 0 mps 691 mmHg 94%
    04:00 +1°C° 0 mm 0 mps 690 mmHg 95%
    05:00 +1°C° 0 mm 0 mps 690 mmHg 95%
    06:00 +1°C° 0 mm 0 mps 690 mmHg 95%
    07:00 +1°C° 0 mm 0 mps 690 mmHg 95%
    08:00 +2°C° 0 mm 0 mps 691 mmHg 93%
    09:00 +3°C° 0 mm 0 mps 691 mmHg 91%
    10:00 +3°C° 0 mm 0 mps 691 mmHg 88%
    11:00 +4°C° 0 mm 0 mps 691 mmHg 85%
    12:00 +5°C° 0 mm 0 mps 691 mmHg 82%
    13:00 +6°C° 0 mm 0 mps 690 mmHg 79%
    14:00 +5°C° 0 mm 0 mps 690 mmHg 83%
    15:00 +4°C° 0 mm 0 mps 690 mmHg 88%
    16:00 +4°C° 0 mm 0 mps 690 mmHg 92%
    17:00 +3°C° 0 mm 0 mps 690 mmHg 93%
    18:00 +3°C° 0 mm 0 mps 689 mmHg 94%
    19:00 +2°C° 0 mm 0 mps 689 mmHg 95%
    20:00 +2°C° 0 mm 0 mps 689 mmHg 94%
    21:00 +2°C° 0 mm 0 mps 689 mmHg 94%
    22:00 +2°C° 0 mm 0 mps 690 mmHg 94%
    23:00 +1°C° 0 mm 0 mps 690 mmHg 93%

    Tomorrow, 27 January, Monday

    Time Temperature Precipitation Wind Pressure Humidity
    00:00 +1°C° 0 mm 0 mps 690 mmHg 93%
    01:00 +1°C° 0 mm 0 mps 690 mmHg 93%
    02:00 +1°C° 0 mm 0 mps 689 mmHg 93%
    03:00 0°C° 0 mm 0 mps 689 mmHg 93%
    04:00 0°C° 0 mm 0 mps 689 mmHg 92%
    05:00 0°C° 0 mm 0 mps 689 mmHg 92%
    06:00 0°C° 0 mm 0 mps 689 mmHg 92%
    07:00 0°C° 0 mm 0 mps 689 mmHg 92%
    08:00 +1°C° 0 mm 0 mps 690 mmHg 87%
    09:00 +2°C° 0 mm 0 mps 690 mmHg 82%
    10:00 +3°C° 0 mm 0 mps 690 mmHg 77%
    11:00 +4°C° 0 mm 0 mps 690 mmHg 75%
    12:00 +5°C° 0 mm 0 mps 690 mmHg 73%
    13:00 +6°C° 0 mm 0 mps 689 mmHg 70%
    14:00 +5°C° 0 mm 0 mps 689 mmHg 75%
    15:00 +6°C° 0 mm 1 mps 688 mmHg 79%
    16:00 +5°C° 0 mm 1 mps 688 mmHg 84%
    17:00 +4°C° 0 mm 1 mps 688 mmHg 86%
    18:00 +3°C° 0 mm 1 mps 688 mmHg 89%
    19:00 +3°C° 0 mm 1 mps 687 mmHg 92%
    20:00 +2°C° 0 mm 1 mps 687 mmHg 92%
    21:00 +2°C° 0 mm 1 mps 687 mmHg 92%
    22:00 +2°C° 0 mm 1 mps 687 mmHg 93%
    23:00 +2°C° 0 mm 1 mps 686 mmHg 93%

    Day after tomorrow, 28 January, Tuesday

    Time Temperature Precipitation Wind Pressure Humidity
    00:00 +2°C° 0 mm 1 mps 685 mmHg 94%
    01:00 +2°C° 0 mm 1 mps 684 mmHg 95%
    02:00 +2°C° 0.3 mm 2 mps 684 mmHg 95%
    03:00 +2°C° 0.3 mm 2 mps 683 mmHg 96%
    04:00 +2°C° 0.3 mm 2 mps 682 mmHg 96%
    05:00 +2°C° 0.5 mm 2 mps 682 mmHg 96%
    06:00 +2°C° 0.5 mm 2 mps 681 mmHg 96%
    07:00 +3°C° 0.5 mm 2 mps 681 mmHg 97%
    08:00 +3°C° 0.7 mm 2 mps 681 mmHg 96%
    09:00 +3°C° 0.7 mm 2 mps 680 mmHg 96%
    10:00 +4°C° 0.7 mm 2 mps 680 mmHg 95%
    11:00 +4°C° 1.5 mm 2 mps 679 mmHg 95%
    12:00 +4°C° 1.5 mm 2 mps 678 mmHg 95%
    13:00 +5°C° 1.5 mm 1 mps 678 mmHg 95%
    14:00 +5°C° 3.1 mm 1 mps 677 mmHg 96%
    15:00 +3°C° 3.1 mm 2 mps 676 mmHg 96%
    16:00 +3°C° 3.1 mm 2 mps 676 mmHg 97%
    17:00 +2°C° 3.8 mm 2 mps 676 mmHg 95%
    18:00 +1°C° 3.8 mm 2 mps 677 mmHg 93%
    19:00 -1°C° 3.8 mm 2 mps 677 mmHg 91%
    20:00 -1°C° 0.4 mm 2 mps 678 mmHg 89%
    21:00 0°C° 0.4 mm 1 mps 679 mmHg 87%
    22:00 0°C° 0.4 mm 1 mps 680 mmHg 85%
    23:00 -1°C° 0 mm 1 mps 680 mmHg 85%

    29 January, Wednesday

    Time Temperature Precipitation Wind Pressure Humidity
    00:00 -1°C° 0 mm 1 mps 681 mmHg 85%
    01:00 -2°C° 0 mm 1 mps 681 mmHg 85%
    02:00 -2°C° 0 mm 1 mps 681 mmHg 86%
    03:00 -3°C° 0 mm 1 mps 681 mmHg 86%
    04:00 -3°C° 0 mm 1 mps 681 mmHg 86%
    05:00 -3°C° 0 mm 1 mps 681 mmHg 88%
    06:00 -3°C° 0 mm 1 mps 681 mmHg 89%
    07:00 -3°C° 0 mm 1 mps 681 mmHg 91%
    08:00 -2°C° 0 mm 1 mps 681 mmHg 88%
    09:00 0°C° 0 mm 1 mps 681 mmHg 85%
    10:00 +1°C° 0 mm 1 mps 681 mmHg 82%
    11:00 +1°C° 0 mm 2 mps 681 mmHg 79%
    12:00 +2°C° 0 mm 2 mps 682 mmHg 77%
    13:00 +2°C° 0 mm 2 mps 682 mmHg 74%
    14:00 +2°C° 0.1 mm 2 mps 682 mmHg 75%
    15:00 +3°C° 0.1 mm 1 mps 683 mmHg 77%
    16:00 +2°C° 0.1 mm 1 mps 683 mmHg 78%
    17:00 +1°C° 0 mm 1 mps 683 mmHg 78%
    18:00 0°C° 0 mm 1 mps 684 mmHg 77%
    19:00 -2°C° 0 mm 1 mps 684 mmHg 76%
    20:00 -2°C° 0 mm 1 mps 684 mmHg 76%
    21:00 -2°C° 0 mm 1 mps 685 mmHg 75%
    22:00 -2°C° 0 mm 1 mps 685 mmHg 74%
    23:00 -3°C° 0 mm 1 mps 685 mmHg 73%

    30 January, Thursday

    Time Temperature Precipitation Wind Pressure Humidity
    00:00 -3°C° 0 mm 1 mps 685 mmHg 72%
    01:00 -3°C° 0 mm 1 mps 686 mmHg 72%
    02:00 -3°C° 0 mm 1 mps 686 mmHg 70%
    03:00 -3°C° 0 mm 1 mps 686 mmHg 69%
    04:00 -3°C° 0 mm 1 mps 686 mmHg 67%
    05:00 -3°C° 0 mm 1 mps 687 mmHg 68%
    06:00 -3°C° 0 mm 1 mps 687 mmHg 69%
    07:00 -3°C° 0 mm 1 mps 688 mmHg 70%
    08:00 -2°C° 0 mm 1 mps 688 mmHg 68%
    09:00 0°C° 0 mm 1 mps 689 mmHg 65%
    10:00 +1°C° 0 mm 1 mps 690 mmHg 63%
    11:00 +2°C° 0 mm 1 mps 690 mmHg 61%
    12:00 +3°C° 0 mm 1 mps 690 mmHg 59%
    13:00 +4°C° 0 mm 1 mps 690 mmHg 56%
    14:00 +4°C° 0 mm 1 mps 690 mmHg 60%
    15:00 +2°C° 0 mm 0 mps 690 mmHg 65%
    16:00 +2°C° 0 mm 0 mps 690 mmHg 69%
    17:00 +1°C° 0 mm 0 mps 690 mmHg 70%
    18:00 0°C° 0 mm 1 mps 690 mmHg 71%
    19:00 -1°C° 0 mm 1 mps 690 mmHg 72%
    20:00 -1°C° 0 mm 1 mps 690 mmHg 71%
    21:00 -1°C° 0 mm 1 mps 690 mmHg 69%
    22:00 -1°C° 0 mm 1 mps 690 mmHg 67%
    23:00 -1°C° 0 mm 1 mps 690 mmHg 67%

    31 January, Friday

    Time Temperature Precipitation Wind Pressure Humidity
    00:00 -1°C° 0 mm 1 mps 690 mmHg 67%
    01:00 -2°C° 0 mm 1 mps 690 mmHg 67%
    02:00 -2°C° 0 mm 1 mps 690 mmHg 68%
    03:00 -2°C° 0 mm 1 mps 690 mmHg 68%
    04:00 -2°C° 0 mm 1 mps 689 mmHg 69%
    05:00 -2°C° 0 mm 1 mps 689 mmHg 69%
    06:00 -2°C° 0 mm 1 mps 689 mmHg 69%
    07:00 -2°C° 0 mm 1 mps 689 mmHg 69%
    08:00 -1°C° 0 mm 1 mps 690 mmHg 66%
    09:00 +1°C° 0 mm 1 mps 690 mmHg 63%
    10:00 +2°C° 0 mm 1 mps 690 mmHg 61%
    11:00 +3°C° 0 mm 1 mps 690 mmHg 60%
    12:00 +4°C° 0 mm 1 mps 690 mmHg 59%
    13:00 +5°C° 0 mm 1 mps 690 mmHg 59%
    14:00 +5°C° 0 mm 1 mps 690 mmHg 63%
    15:00 +4°C° 0 mm 1 mps 690 mmHg 68%
    16:00 +3°C° 0 mm 1 mps 690 mmHg 73%
    17:00 +2°C° 0 mm 1 mps 690 mmHg 73%
    18:00 +1°C° 0 mm 1 mps 690 mmHg 74%
    19:00 0°C° 0 mm 1 mps 690 mmHg 75%
    20:00 0°C° 0 mm 1 mps 690 mmHg 74%
    21:00 0°C° 0 mm 1 mps 690 mmHg 73%
    22:00 0°C° 0 mm 1 mps 690 mmHg 73%
    23:00 0°C° 0 mm 1 mps 690 mmHg 72%
    Show more